Погода в Языкове

Россия / Нижегородская область     55°24′56″N   46°18′05″E
темп.,
°C
ветер,
м/с
пор.,
м/с
влажн.,
%
обл.,
%
осадки,
мм/ч
давл.,
гПа
погр.,
м
15 апреля, чт
чт1500:00+11ююв26900 0.0 1021110
03:00+9юв22913 0.0 102111
06:00+10ююв228825 0.0 102027
09:00+15ю236416 0.0 1020307
12:00+19ююз224479 0.0 10191167
15:00+19зюз103977 0.0 10181714
18:00+16с115364 0.0 101811
21:00+12всв22714 0.0 101911
16 апреля, пт
пт1600:00+10св410939 0.0 1020262
03:00+9св5990100 0.0 1021445
06:00+8св4987100 0.0 1022544
09:00+9всв5881100 0.0 1023613
12:00+11всв567497 0.0 1024761
15:00+11всв577089 0.0 1024839
18:00+11всв586980 0.0 1024871
21:00+8всв411755 0.0 1025425
17 апреля, сб
сб1700:00+6всв310785 0.0 1026313
03:00+4всв411765 0.0 1026305
06:00+4всв411745 0.0 1027338
09:00+9всв58555 0.0 1027609
12:00+12всв57435 0.0 10271104
15:00+13всв56365 0.0 10261283
18:00+11всв48435 0.0 1026353
21:00+6всв310614 0.0 1026218
18 апреля, вс
вс1800:00+5всв311690 0.0 1026262
03:00+3всв39780 0.0 1026179
06:00+3всв411730 0.0 1026275
09:00+9всв58510 0.0 1025973
12:00+12всв56415 0.0 10251609
15:00+13всв573930 0.0 10251876
18:00+11всв3751100 0.0 1025272
21:00+7всв61269100 0.0 1027663
19 апреля, пн
пн1900:00+5всв4116692 0.0 1028525
03:00+3всв51260100 0.0 1029524
06:00+2всв41156100 0.0 1030537
09:00+5в6950100 0.0 1030905
12:00+8в6837100 0.0 10301689
15:00+8в6832100 0.0 10301745
18:00+6в5840100 0.0 10301282
21:00+3всв4124868 0.0 1030535